Weather History for North Adams, MA

Change the Weather History Date:

Thursday, September 12, 2013

  Actual Average Record
Temperature  
Mean Temperature 73 °F -  
Max Temperature 80 °F 71 °F 84 °F (2005)
Min Temperature 66 °F 49 °F 36 °F (2006)
Cooling Degree Days 8    
Growing Degree Days 23 (Base 50)    
Moisture  
Dew Point 67 °F    
Average Humidity 91    
Maximum Humidity 100    
Minimum Humidity 74    
Precipitation  
Precipitation 1.78 in - - ()
Sea Level Pressure  
Sea Level Pressure 29.80 in    
Wind  
Wind Speed 3 mph (ESE)    
Max Wind Speed 8 mph    
Max Gust Speed -    
Visibility 5 miles    
Events Fog , Rain , Thunderstorm    
Averages and records for this station are not official NWS values.
T = Trace of Precipitation, MM = Missing Value Source: NWS Daily Summary

Daily Weather History Graph

Daily Weather History Graph

Search for Another Location

Airport:

Trip Planner

Search our weather history database for the weather conditions in past years. The results will help you decide how hot, cold, wet, or windy it might be!

Date:

Astronomy

Sep. 12, 2013 Rise Set
Actual Time 6:29 AM EDT 7:07 PM EDT
Civil Twilight 6:01 AM EDT 7:35 PM EDT
Nautical Twilight 5:27 AM EDT 8:09 PM EDT
Astronomical Twilight 4:52 AM EDT 8:44 PM EDT
Moon 2:03 PM EDT (9/12) 11:51 PM EDT (9/12)
Length of Visible Light 13h 34m
Length of Day
12h 37m
Waxing Crescent, 50% of the Moon is Illuminated
Sep 12
Waxing Crescent
Sep 12
First Quarter
Sep 19
Full
Sep 26
Last Quarter
Oct 4
New

Hourly Weather History & Observations

Time (EDT) Temp. Heat Index Dew Point Humidity Pressure Visibility Wind Dir Wind Speed Gust Speed Precip Events Conditions
12:52 AM 68.0 °F - 64.9 °F 90% 29.94 in 10.0 mi SSW 4.6 mph - N/A   Clear
1:49 AM 66.2 °F - 66.2 °F 100% 29.95 in 9.0 mi ESE 6.9 mph - N/A   Partly Cloudy
1:52 AM 66.9 °F - 66.9 °F 100% 29.94 in 9.0 mi ESE 5.8 mph - N/A   Partly Cloudy
2:52 AM 68.0 °F - 66.0 °F 93% 29.93 in 10.0 mi ESE 5.8 mph - N/A   Clear
3:52 AM 66.9 °F - 66.0 °F 97% 29.94 in 10.0 mi Calm Calm - N/A   Clear
4:52 AM 66.9 °F - 64.9 °F 93% 29.93 in 10.0 mi ESE 6.9 mph - N/A   Partly Cloudy
5:52 AM 66.9 °F - 64.0 °F 90% 29.91 in 10.0 mi Calm Calm - N/A   Scattered Clouds
6:01 AM 66.2 °F - 66.2 °F 100% 29.92 in 10.0 mi Variable 3.5 mph - N/A Thunderstorm Partly Cloudy
6:29 AM 66.2 °F - 66.2 °F 100% 29.93 in 10.0 mi Calm Calm - N/A   Overcast
6:52 AM 66.9 °F - 66.0 °F 97% 29.92 in 9.0 mi Calm Calm - N/A   Overcast
7:52 AM 66.9 °F - 66.0 °F 97% 29.91 in 10.0 mi East 3.5 mph - N/A   Partly Cloudy
8:11 AM 69.8 °F - 64.4 °F 83% 29.91 in 10.0 mi Calm Calm - N/A Thunderstorm Thunderstorm
8:26 AM 69.8 °F - 66.2 °F 88% 29.90 in 10.0 mi ESE 4.6 mph - N/A   Scattered Clouds
8:52 AM 71.1 °F - 66.0 °F 84% 29.89 in 10.0 mi Variable 3.5 mph - N/A   Partly Cloudy
9:42 AM 73.4 °F - 66.2 °F 78% 29.88 in 10.0 mi East 4.6 mph - 0.00 in Thunderstorm Mostly Cloudy
9:52 AM 73.9 °F - 66.9 °F 79% 29.87 in 10.0 mi Calm Calm - 0.00 in Thunderstorm Mostly Cloudy
10:12 AM 73.4 °F - 68.0 °F 83% 29.87 in 1.0 mi ESE 3.5 mph - 0.12 in Rain , Thunderstorm Thunderstorms and Rain
10:19 AM 71.6 °F - 69.8 °F 94% 29.86 in 0.8 mi Calm Calm - 0.18 in Rain , Thunderstorm Light Thunderstorms and Rain
10:24 AM 71.6 °F - 69.8 °F 94% 29.86 in 1.5 mi Variable 3.5 mph - 0.24 in Rain , Thunderstorm Heavy Rain
10:28 AM 71.6 °F - 69.8 °F 94% 29.86 in 2.0 mi East 5.8 mph - 0.24 in Rain , Thunderstorm Light Rain
10:39 AM 71.6 °F - 69.8 °F 94% 29.85 in 7.0 mi East 3.5 mph - 0.24 in Thunderstorm Overcast
10:52 AM 75.0 °F - 70.0 °F 84% 29.83 in 7.0 mi Calm Calm - 0.24 in Thunderstorm Scattered Clouds
10:59 AM 75.2 °F - 71.6 °F 89% 29.84 in 7.0 mi Calm Calm - N/A   Scattered Clouds
11:42 AM 77.0 °F - 71.6 °F 83% 29.82 in 8.0 mi Calm Calm - N/A Thunderstorm Mostly Cloudy
11:52 AM 77.0 °F - 71.1 °F 82% 29.81 in 7.0 mi Calm Calm - N/A Thunderstorm Mostly Cloudy
12:23 PM 75.2 °F - 71.6 °F 89% 29.83 in 1.8 mi Calm Calm - 0.03 in Rain , Thunderstorm Light Thunderstorms and Rain
12:28 PM 73.4 °F - 71.6 °F 94% 29.81 in 0.8 mi Variable 3.5 mph - 0.12 in Rain , Thunderstorm Heavy Rain
12:41 PM 73.4 °F - 71.6 °F 94% 29.81 in 1.5 mi NNE 3.5 mph - 0.18 in Rain , Thunderstorm Light Thunderstorms and Rain
12:44 PM 73.4 °F - 71.6 °F 94% 29.81 in 3.0 mi Calm Calm - 0.18 in Rain , Thunderstorm Light Thunderstorms and Rain
12:52 PM 73.9 °F - 72.0 °F 93% 29.81 in 4.0 mi East 4.6 mph - 0.18 in Rain , Thunderstorm Light Thunderstorms and Rain
1:12 PM 73.4 °F - 69.8 °F 88% 29.80 in 6.0 mi East 4.6 mph - 0.00 in Thunderstorm Mostly Cloudy
1:28 PM 75.2 °F - 71.6 °F 89% 29.78 in 6.0 mi East 4.6 mph - 0.00 in   Scattered Clouds
1:38 PM 75.2 °F - 71.6 °F 89% 29.78 in 6.0 mi ESE 8.1 mph - 0.00 in Thunderstorm Scattered Clouds
1:50 PM 75.2 °F - 71.6 °F 89% 29.78 in 6.0 mi ESE 5.8 mph - 0.00 in Rain Light Rain
1:52 PM 75.9 °F - 71.1 °F 85% 29.77 in 7.0 mi ESE 5.8 mph - 0.00 in Rain Light Rain
2:30 PM 80.6 °F 84.6 °F 71.6 °F 74% 29.73 in 7.0 mi Calm Calm - 0.00 in Thunderstorm Scattered Clouds
2:45 PM 78.8 °F - 71.6 °F 78% 29.73 in 7.0 mi Variable 3.5 mph - 0.00 in   Partly Cloudy
2:52 PM 79.0 °F - 72.0 °F 79% 29.74 in 6.0 mi NNW 3.5 mph - 0.00 in   Haze
3:09 PM 77.0 °F - 71.6 °F 83% 29.74 in 3.0 mi West 3.5 mph - 0.01 in Rain , Thunderstorm Light Rain
3:11 PM 77.0 °F - 71.6 °F 83% 29.74 in 1.2 mi West 4.6 mph - 0.05 in Rain , Thunderstorm Light Rain
3:20 PM 73.4 °F - 71.6 °F 94% 29.75 in 0.8 mi Variable 5.8 mph - 0.09 in Rain , Thunderstorm Light Rain
3:22 PM 73.4 °F - 68.0 °F 83% 29.74 in 1.5 mi Variable 6.9 mph - 0.10 in Rain , Thunderstorm Light Rain
3:25 PM 71.6 °F - 66.2 °F 83% 29.74 in 3.0 mi Variable 6.9 mph - 0.11 in Rain , Thunderstorm Light Thunderstorms and Rain
3:30 PM 69.8 °F - 66.2 °F 88% 29.76 in 1.8 mi Variable 3.5 mph - 0.16 in Rain , Thunderstorm Thunderstorms and Rain
3:36 PM 69.8 °F - 66.2 °F 88% 29.79 in 0.8 mi WSW 4.6 mph - 0.26 in Rain , Thunderstorm Heavy Thunderstorms and Rain
3:45 PM 68.0 °F - 66.2 °F 94% 29.78 in 0.2 mi Calm Calm - 0.47 in Fog , Rain , Thunderstorm Heavy Thunderstorms and Rain
3:52 PM 69.1 °F - 64.9 °F 87% 29.77 in 0.5 mi Variable 4.6 mph - 0.55 in Fog , Rain , Thunderstorm Heavy Thunderstorms and Rain
3:58 PM 69.8 °F - 66.2 °F 88% 29.76 in 1.0 mi Variable 3.5 mph - 0.02 in Rain , Thunderstorm Heavy Thunderstorms and Rain
4:02 PM 68.0 °F - 66.2 °F 94% 29.76 in 2.0 mi NW 4.6 mph - 0.03 in Rain , Thunderstorm Thunderstorms and Rain
4:18 PM 68.0 °F - 64.4 °F 88% 29.73 in 4.0 mi Calm Calm - 0.06 in Rain , Thunderstorm Rain
4:52 PM 68.0 °F - 66.0 °F 93% 29.74 in 9.0 mi Calm Calm - 0.06 in Thunderstorm Scattered Clouds
5:12 PM 68.0 °F - 64.4 °F 88% 29.76 in 6.0 mi SSW 6.9 mph - 0.02 in Rain Light Rain
5:30 PM 66.2 °F - 64.4 °F 94% 29.76 in 1.5 mi Calm Calm - 0.07 in Rain Rain
5:32 PM 66.2 °F - 64.4 °F 94% 29.75 in 0.8 mi Calm Calm - 0.14 in Rain Heavy Rain
5:43 PM 66.2 °F - 66.2 °F 100% 29.74 in 2.0 mi Calm Calm - 0.18 in Rain Light Rain
5:50 PM 66.2 °F - 64.4 °F 94% 29.74 in 10.0 mi Calm Calm - 0.18 in   Overcast
5:52 PM 66.9 °F - 64.9 °F 93% 29.75 in 9.0 mi South 3.5 mph - 0.18 in Rain Light Rain
6:00 PM 66.2 °F - 64.4 °F 94% 29.73 in 1.8 mi Calm Calm - 0.03 in Rain Heavy Rain
6:14 PM 66.2 °F - 66.2 °F 100% 29.74 in 1.5 mi South 5.8 mph - 0.11 in Rain , Thunderstorm Heavy Rain
6:25 PM 66.2 °F - 64.4 °F 94% 29.74 in 2.0 mi North 4.6 mph - 0.19 in Rain , Thunderstorm Heavy Thunderstorms and Rain
6:28 PM 66.2 °F - 64.4 °F 94% 29.74 in 1.2 mi NE 3.5 mph - 0.27 in Rain , Thunderstorm Heavy Thunderstorms and Rain
6:37 PM 66.2 °F - 64.4 °F 94% 29.75 in 1.5 mi Calm Calm - 0.32 in Rain , Thunderstorm Rain
6:52 PM 66.0 °F - 66.0 °F 100% 29.74 in 2.0 mi Variable 3.5 mph - 0.40 in Rain Rain
7:02 PM 66.2 °F - 66.2 °F 100% 29.74 in 4.0 mi East 4.6 mph - 0.02 in Rain Rain
7:52 PM 66.0 °F - 66.0 °F 100% 29.73 in 6.0 mi SW 3.5 mph - 0.11 in Rain Light Rain
8:26 PM 66.2 °F - 64.4 °F 94% 29.73 in 8.0 mi NE 3.5 mph - 0.00 in   Overcast
8:52 PM 66.0 °F - 66.0 °F 100% 29.71 in 7.0 mi Calm Calm - 0.00 in Rain Light Rain
9:43 PM 66.2 °F - 66.2 °F 100% 29.71 in 3.0 mi Calm Calm - 0.03 in Rain Light Rain
9:52 PM 66.0 °F - 64.0 °F 93% 29.71 in 4.0 mi Calm Calm - 0.04 in Rain Light Rain
10:01 PM 66.2 °F - 66.2 °F 100% 29.71 in 5.0 mi Calm Calm - 0.01 in Rain Light Rain
10:52 PM 66.0 °F - 64.9 °F 96% 29.69 in 9.0 mi Calm Calm - 0.02 in   Overcast
11:14 PM 66.2 °F - 64.4 °F 94% 29.70 in 6.0 mi Calm Calm - N/A   Overcast
11:22 PM 66.2 °F - 64.4 °F 94% 29.70 in 6.0 mi Calm Calm - N/A   Overcast
11:52 PM 66.0 °F - 64.9 °F 96% 29.68 in 5.0 mi Calm Calm - 0.00 in Rain Light Rain
11:59 PM 66.2 °F - 64.4 °F 94% 29.69 in 4.0 mi Calm Calm - 0.00 in Rain Light Rain